Terug naar catalogus

FENGYUN 1C DEB

ActiefSSO
NORAD 38801·DEBRIS·🇨🇳 China

Gelanceerd May 10, 1999 vanaf Taiyuan Satellite Launch Center

Loading…

Volgende Passages (komende 24 uur)

TLE

VerouderendSource: Space-Track

Epoch: Sep 6, 2026, 22:30 UTC

1 38801U 99025EUR 26249.93784931  .00000731  00000-0  17835-3 0  9990
2 38801  98.3404 293.5579 0341967 282.3625 202.4949 14.26004972681817

Volg FENGYUN 1C DEB in realtime met AllMySat

Download on the App Store